カタログに戻る

DMSP 5D-2 F11 DEB

運用中SSO
NORAD 28322·DEBRIS·🇺🇸 United States

打ち上げ Nov 28, 1991 から Vandenberg Space Force Base

Loading…

次のパス (今後24時間)

TLE

最新Source: Space-Track

元期: Sep 11, 2026, 17:27 UTC

1 28322U 91082AK  26254.72756684  .00000597  00000-0  41774-3 0  9998
2 28322  98.5712 247.7887 0111425 345.1247 190.0562 13.99071250139311

AllMySatでDMSP 5D-2 F11 DEBをリアルタイム追跡

Download on the App Store